Regional Weather Roundup
Issued by NWS

Home | Current Version | Previous Version | Graphics & Text | Print | Product List | Glossary On
Versions: 1 2 3 4 5 6 7 8 9 10 11 12 13 14 15 16 17 18 19 20 21 22 23 24 25 26 27 28 29 30 31 32 33 34 35 36 37 38 39 40 41 42 43 44 45 46 47 48 49 50
000
ASUS44 KMEG 011210
RWRTN
TENNESSEE HOURLY STATE WEATHER ROUNDUP
NATIONAL WEATHER SERVICE MEMPHIS TN
700 AM CDT WED OCT 01 2014

TNZ002-004-019-021-049-052-054-088>092-011300-
WEST TENNESSEE

CITY           SKY/WX    TMP DP  RH WIND       PRES   REMARKS
MEMPHIS INTL   PTCLDY    69  60  73 S7        29.92R
NWS MEMPHIS      N/A     64 N/A N/A MISG        N/A
JACKSON        CLEAR     58  55  90 CALM      29.94R FOG
DYERSBURG      CLEAR     61  48  63 CALM      29.93S
UNION CITY     CLEAR     55  55 100 CALM      29.92R
PARIS          CLEAR     54  52  94 CALM      29.95R
HUNTINGDON     CLEAR     56  55  96 CALM      29.95R
LEXINGTON      CLEAR     55  54  94 CALM      29.94S
SAVANNAH       CLEAR     59  59 100 CALM      29.96R
$$

TNZ008-025-027-028-033-062-065-066-011300-
NORTH MIDDLE TENNESSEE

CITY           SKY/WX    TMP DP  RH WIND       PRES   REMARKS
NASHVILLE      PTCLDY    58  54  86 CALM      29.97R
PORTLAND       CLEAR     54  52  94 S3        29.97R
CLARKSVILLE    CLEAR     55  53  93 CALM      29.96R FOG
LEBANON        PTCLDY    53  51  93 CALM      29.96R
SMYRNA         PTCLDY    53  53 100 CALM      29.99R
MURFREESBORO   PTCLDY    55  52  90 CALM      29.97R
COOKEVILLE     CLEAR     48  48 100 CALM      29.99R
GALLATIN       PTCLDY    54  54 100 CALM      29.98R
CROSSVILLE     MOCLDY    56  51  84 CALM      30.03R
$$

TNZ061-075-076-078-094-096-097-011300-
SOUTH MIDDLE TENNESSEE

CITY           SKY/WX    TMP DP  RH WIND       PRES   REMARKS
LEWISBURG      PTCLDY    53  51  93 CALM      29.97R
FAYETTEVILLE   CLEAR     57  55  94 E9G170    29.99R
TULLAHOMA      CLEAR     54  52  94 CALM      30.00R
WINCHESTER     CLEAR     54  54 100 CALM      29.99R
MCMINNVILLE    CLEAR     52  52 100 CALM      29.99R
COLUMBIA       PTCLDY   N/A N/A N/A CALM      29.96R
SHELBYVILLE    CLEAR     55  55 100 CALM      29.99R
$$

TNZ017-018-042-046-047-011300-
NORTHEAST TENNESSEE

CITY           SKY/WX    TMP DP  RH WIND       PRES   REMARKS
TRI CITIES     FOG       52  49  89 CALM      30.03R VSB 3/4
ELIZABETHTON   SUNNY     54  52  94 VRB3      30.04R
$$

TNZ012-013-036-069-073-074-011300-
CENTRAL EAST TENNESSEE

CITY           SKY/WX    TMP DP  RH WIND       PRES   REMARKS
KNOXVILLE      MOCLDY    56  55  97 CALM      30.00R FOG
OAK RIDGE      FOG       56  55  97 CALM      30.03R VSB 1/4
GATLINBURG     SUNNY     52  50  93 CALM      30.02R
MORRISTOWN     SUNNY     54  54 100 CALM      30.03R
$$

TNZ083-085-099-011300-
SOUTHEAST TENNESSEE

CITY           SKY/WX    TMP DP  RH WIND       PRES   REMARKS
CHATTANOOGA    MOCLDY    60  57  89 CALM      30.00R FOG
$$

SKY/WX REPORTED AS FAIR MEANS FEW OR NO CLOUDS BELOW
12 THOUSAND FEET.



USA.gov is the U.S. government's official web portal to all federal, state and local government web resources and services.